Regional Weather Roundup
Issued by NWS

Home | Current Version | Previous Version | Graphics & Text | Print | Product List | Glossary On
Versions: 1 2 3 4 5 6 7 8 9 10 11 12 13 14 15 16 17 18 19 20 21 22 23 24 25 26 27 28 29 30 31 32 33 34 35 36 37 38 39 40 41 42 43 44 45 46 47 48 49 50
000
ASUS43 KDTX 220701
RWRMI
MICHIGAN HOURLY REGIONAL WEATHER ROUNDUP
NATIONAL WEATHER SERVICE DETROIT/PONTIAC MI
200 AM EST SUN JAN 22 2017

NOTE: "FAIR" INDICATES FEW OR NO CLOUDS BELOW 12,000 FEET WITH NO
SIGNIFICANT WEATHER AND/OR OBSTRUCTION TO VISIBILITY.

MIZ047>049-052>055-059>063-066>070-074>076-081>083-220800-
SOUTHEAST LOWER MICHIGAN

CITY           SKY/WX    TMP DP  RH WIND       PRES   REMARKS
ADRIAN         FOG       35  35 100 CALM      29.61F VSB 1/4
ALMA           FOG       38  38  99 CALM      29.59F VSB 1/4
ANN ARBOR      FOG       35  35 100 CALM      29.59F VSB 1/4
BAD AXE        FOG       42  42 100 S5        29.60S VSB 1/4
CARO           FOG       43  43 100 S3        29.59S VSB<1/4
DETROIT CITY   FOG       38  38 100 SE5       29.61F VSB 3/4 WCI  34
DETROIT        FOG       40  40 100 CALM      29.62S VSB 1/4
FLINT          FOG       43  43 100 S5        29.60S VSB 1/4
GROSSE ILE     FOG       37  37  99 S3        29.61S VSB 1/4
HILLSDALE      FOG       45  43  93 S3        29.59S VSB 1/4
HOWELL         FOG       41  40  96 CALM      29.60R VSB 1/4

CITY           SKY/WX    TMP DP  RH WIND       PRES   REMARKS
JACKSON        FOG       45  44  97 SW3       29.59S VSB 1/4
LAMBERTVILLE   FOG       43  42  95 CALM      29.61S VSB 1/4
LANSING        FOG       48  45  89 CALM      29.59F VSB 1/4
LAPEER         FOG       34  34 100 CALM      29.60S VSB<1/4
MASON          FOG       43  43 100 CALM      29.59S VSB<1/4
MONROE         FOG       37  37 100 S6        29.60S VSB<1/4 WCI  33
MT. CLEMENS    FOG       34  34 100 CALM      29.60S VSB 1/2
PONTIAC        FOG       37  35  92 CALM      29.59F VSB 1/4
PORT HOPE        N/A     38  38 100 SE8       29.59S WCI  32
PORT HURON     FOG       39  39 100 CALM      29.62F VSB 1/4
TRI CITIES     FOG       40  40 100 W3        29.59S VSB<1/4
MIDLAND        FOG       39  38  97 CALM      29.58S VSB<1/4
TROY           FOG       39  38  96 CALM      29.63S VSB 1/4
SAGINAW HB     FOG       43  41  93 SW6       29.58S VSB 3/4
$$
MIZ043>046-050>051-056>058-064>065-071>073-077>080-220800-
SOUTHWEST LOWER MICHIGAN

CITY           SKY/WX    TMP DP  RH WIND       PRES   REMARKS
BATTLE CREEK   FOG       41  41 100 SW3       29.59S VSB 1/4
BENTON HARBOR  FOG       36  34  92 CALM      29.59S VSB 1/4
BIG RAPIDS     FOG       34  34  99 CALM      29.57F VSB 1/4
COLDWATER      FOG       45  45 100 S3        29.59S VSB 1/2
FREMONT        FOG       34  34 100 CALM      29.58S VSB 1/4
HOLLAND        PTCLDY    36  34  92 W3        29.59S
GRAND RAPIDS   FOG       36  34  92 S3        29.58S VSB 1/4
IONIA          FOG       40  40  99 SW6       29.58F VSB<1/4
KALAMAZOO      FOG       38  37  97 CALM      29.59S VSB<1/4
LUDINGTON      FOG       38  38 100 CALM      29.58R VSB 1/4
MARSHALL       FOG       41  40  98 CALM      29.59S VSB<1/4
MOUNT PLEASANT FOG       37  37  99 CALM      29.58S VSB 1/4
MUSKEGON       FOG       39  38  96 S3        29.60R VSB 1/4
SOUTH HAVEN    FOG       36  36  99 CALM      29.60R VSB 1/2
$$
MIZ016>042-220800-
NORTHERN LOWER MICHIGAN

CITY           SKY/WX    TMP DP  RH WIND       PRES   REMARKS
ALPENA         FOG       37  36  96 E3        29.61R VSB 1/2
BEAVER ISLAND  CLOUDY    38  38 100 SE6       29.56S FOG     WCI  34
BELLAIRE       CLOUDY    36  35  99 CALM      29.58S FOG
CADILLAC       FOG       39  38  97 CALM      29.56S VSB 1/4
CHARLEVOIX     FOG       40  40 100 CALM      29.59S VSB 3/4
FRANKFORT      CLOUDY    42  42  99 CALM      29.57S FOG
GAYLORD        FOG       41  37  86 SW3       29.56S VSB 1/4
GRAYLING       FOG       40  40  99 CALM      29.58S VSB 1/4
HARBOR SPRINGS CLOUDY    37  37 100 E5        29.58R WCI  33
HOUGHTON LAKE  FOG       40  39  97 W3        29.57S VSB 1/4
MANISTEE       FOG       36  36 100 CALM      29.58R VSB 1/4
OSCODA         FOG       38  37  97 CALM      29.59S VSB 1/4
PELLSTON       FOG       36  34  92 SE3       29.59R VSB 1/4
ROGERS CITY    FOG       38  37  96 CALM      29.61R VSB 1/2
TRAVERSE CITY  FOG       43  42  97 S3        29.56S VSB 1
$$
MIZ007>008-015-220800-
EASTERN UPPER MICHIGAN

CITY           SKY/WX    TMP DP  RH WIND       PRES   REMARKS
KINROSS        FOG       35  34  96 E9        29.60S VSB 3/4 WCI  28
MACKINAC ISLAN FOG       35  35 100 E8        29.58S VSB 1/4 WCI  29
NEWBERRY       CLOUDY    35  34  96 SE7       29.56S FOG     WCI  29
S. S. MARIE    FOG       37  36  96 E6        29.60F VSB 1/2 WCI  32
MUNISING         N/A     38  37  97 CALM      29.53R
$$
MIZ004>006-011>014-085-220800-
CENTRAL UPPER MICHIGAN

CITY           SKY/WX    TMP DP  RH WIND       PRES   REMARKS
MANISTIQUE     FOG       35  35  97 E8        29.55R VSB 1/2 WCI  29
ESCANABA       FOG       34  34 100 CALM      29.54R VSB 1/2
SAWYER-GWINN   SNOW      34  33  99 CALM      29.52S VSB 1/4
$$
MIZ001>003-009>011-084-220800-
WESTERN UPPER MICHIGAN

CITY           SKY/WX    TMP DP  RH WIND       PRES   REMARKS
IRON MOUNTAIN  FOG       33  31  92 CALM      29.51S VSB 1/2
HOUGHTON       FOG       35  33  92 E5        29.51S VSB 1/4 WCI  31
COPPER HARBOR    N/A     37  36  96 CALM      29.54S
IRONWOOD       FOG       35  34  96 SW3       29.51S VSB 3/4
$$

ABBREVIATIONS USED IN REMARKS
   TC - TEMPERATURE IN CELSIUS
  WCI - WIND CHILL INDEX
   HX - HEAT INDEX
  VSB - VISIBILITY





USA.gov is the U.S. government's official web portal to all federal, state and local government web resources and services.